Location: Recife
(8.0585°S, 34.8848°W)
Time: 21:07:01
(UTC-03:00)

A-11 Canister half - Pass Details

Date: 18 April 2026
Orbit: 1515 x 1684 km, 47.2° (Epoch: 12 May)

Event Time Altitude Azimuth Distance (km) Brightness Sun altitude
Rises 02:45:14 0° 257° (WSW) 4,685 - -39.1°
Reaches altitude 10° 02:50:13 10° 279° (W) 3,679 - -37.9°
Maximum altitude 02:54:46 15° 309° (NW) 3,314 - -36.8°
Drops below altitude 10° 02:59:19 10° 340° (NNW) 3,661 - -35.7°
Exits shadow 02:59:33 10° 341° (NNW) 3,696 10.9 -35.6°
Sets 03:04:20 0° 3° (N) 4,647 11.6 -34.4°
